Regional Weather Roundup
Issued by NWS Green Bay, WI

Home | Current Version | Previous Version | Text Only | Print | Product List | Glossary On
Versions: 1 2 3 4 5 6 7 8 9 10 11 12 13 14 15 16 17 18 19 20 21 22 23 24 25 26 27 28 29 30 31 32 33 34 35 36 37 38 39 40 41 42 43 44 45 46 47 48 49 50
000
ASUS43 KGRB 261100
RWRGRB

NORTH-CENTRAL AND NORTHEAST WISCONSIN REGIONAL WEATHER ROUNDUP
NATIONAL WEATHER SERVICE GREEN BAY WI
600 AM CDT THU MAY 26 2016

WIZ005-009-010>012-018-019-261200-
NORTH CENTRAL WISCONSIN

CITY           SKY/WX    TMP DP  RH WIND       PRES   REMARKS
IRONWOOD       CLOUDY    54  52  94 CALM      29.80R
MANITOWISH WTR NOT AVBL
ARBOR VITAE    NOT AVBL
EAGLE RIVER    NOT AVBL
LAND O LAKES   NOT AVBL
RHINELANDER    FOG       61  60  97 SW3       29.85R VSB 1/4
PHILLIPS       FOG       59  59 100 CALM      29.82R VSB 1/4
ANTIGO         NOT AVBL
TOMAHAWK       NOT AVBL
MERRILL        NOT AVBL
$$

WIZ013-073-261200-
NORTHEAST WISCONSIN

CITY           SKY/WX    TMP DP  RH WIND       PRES   REMARKS
IRON MOUNTAIN  CLOUDY    61  59  93 S6        29.81S FOG
MARINETTE      FOG       57  57 100 SE3       29.84S VSB 1/4
$$

WIZ017-030-035>037-045-261200-
CENTRAL WISCONSIN

CITY           SKY/WX    TMP DP  RH WIND       PRES   REMARKS
MEDFORD        NOT AVBL
WAUSAU         FOG       63  32  31 CALM      29.83R VSB 1
MOSINEE        FOG       61  61 100 CALM      29.85R VSB 1/8
MARSHFIELD     FOG       60  58  92 NE5       29.81S VSB 1/4
WISC RAPIDS    FOG       59  57  93 CALM      29.83R VSB 1/4
STEVENS POINT  NOT AVBL
WAUPACA        NOT AVBL
SHAWANO        NOT AVBL
CLINTONVILLE   NOT AVBL
WAUTOMA        NOT AVBL
$$

WIZ038-039-048-051-261200-
FOX VALLEY

CITY           SKY/WX    TMP DP  RH WIND       PRES   REMARKS
NWS GREEN BAY  CLOUDY    62  60  93 NE3       29.84R FOG
APPLETON       FOG       61  61 100 CALM      29.82S VSB 1/8
OSHKOSH        CLOUDY    63  62  97 SW9       29.83R FOG
FOND DU LAC    CLOUDY    63  62  97 SW6       29.85R FOG
$$

WIZ022-050-052-261200-
EAST CENTRAL WISCONSIN

CITY           SKY/WX    TMP DP  RH WIND       PRES   REMARKS
EPHRAIM        NOT AVBL
STURGEON BAY   NOT AVBL
MANITOWOC      NOT AVBL
SHEBOYGAN      FOG       61  60  97 S6        29.85S VSB<1/4
$$

LMZ563-521-522-541>543-261200-
LAKESHORE

STATION/POSITION TIME  TEMP    WIND        PRES    VSBY  WAVE
                       AIR SEA DIR/SP/G                  HT/PER
                 (UTC) (F)     (DEG/KT/KT) (MB)    (MI)  (FT/S)
SHEBOYGAN LKSHOR 1000   49     160/ 11/ 12 1011.3F
KEWAUNEE LKSHORE 1000   49     180/  8/  9 1010.0F
NORTHPORT PIER   1000   55     170/  7/ 12 1010.8S
N MID LAKE BUOY  0950   50 45  190/ 10/ 12 1010.6F         1
CHAMBERS ISLAND  1040   56     160/  3/  5 1010.8S
MENOMINEE LKSHOR 1000   55     150/  7/  9 1009.4F
$$




USA.gov is the U.S. government's official web portal to all federal, state and local government web resources and services.